Flag for Denmark Weather past 2 weeks in Aarhus, Denmark

Now
57 °F

Passing clouds.


Feels Like: 57 °F
Forecast: 49 / 70 °F
Wind: 3 mph from South

Location: Tirstrup

Current Time: Aug 2, 2015 at 12:39:46 AM

Latest Report: Aug 1, 2015 at 11:20 PM


Visibility: N/A

Pressure: 30.07 "Hg

Humidity: 67%

Dew point: 46 °F

Location of AarhusLocation

Historic Weather in Aarhus — Graph

°F

Aarhus temperature yesterday

Maximum temperature yesterday: 66 °F (at 1:50 PM)
Minimum temperature yesterday: 46 °F (at 5:20 AM)
Average temperature yesterday: 58 °F

Past Weeks' High & Low Weather Summary

 TemperatureHumidityPressure
High72 °F (Jul 18, 12:50 PM)94% (Jul 20, 4:50 AM)30.07 "Hg (Jul 20, 4:50 AM)
Low45 °F (Jul 30, 4:50 AM)27% (Jul 18, 3:20 PM)29.36 "Hg (Jul 28, 5:20 AM)
Average60 °F69%29.74 "Hg
* Reported Jul 17 11:20 PM — Aug 1 11:20 PM, Aarhus, Weather by CustomWeather, © 2015

Note: Actual official high and low records may vary slightly from our data, if they occured in-between our weather recording intervals... More about our weather records

Advertising

Aarhus weather history for previous 24 hours

 ConditionsComfort  
Time TempWeatherWind HumidityBarometerVisibility
11:20 PM
Sat, Aug 1
57 °FPassing clouds.3 mph67%30.07 "HgN/A
10:20 PM59 °FPartly sunny.2 mph68%30.07 "HgN/A
9:50 PM59 °FPassing clouds.3 mph68%30.07 "HgN/A
9:20 PM59 °FPassing clouds.2 mph63%30.07 "HgN/A
8:50 PM61 °FRefreshingly cool.1 mph59%30.07 "HgN/A
8:20 PM61 °FRefreshingly cool.3 mph59%30.07 "HgN/A
7:50 PM63 °FMild.5 mph56%30.04 "HgN/A
7:20 PM63 °FMild.5 mph52%30.04 "HgN/A
6:50 PM63 °FPassing clouds.7 mph52%30.04 "HgN/A
6:20 PM64 °FMild.7 mph49%30.07 "HgN/A
5:50 PM64 °FMild.8 mph49%30.04 "HgN/A
5:20 PM64 °FMild.8 mph52%30.07 "HgN/A
4:50 PM64 °FMild.9 mph52%30.07 "HgN/A
4:20 PM64 °FMild.8 mph49%30.07 "HgN/A
3:50 PM64 °FMild.8 mph46%30.07 "HgN/A
3:20 PM64 °FMild.8 mph49%30.07 "HgN/A
2:50 PM64 °FPassing clouds.8 mph49%30.07 "HgN/A
2:20 PM64 °FPartly sunny.8 mph52%30.07 "HgN/A
1:50 PM66 °FPartly sunny.8 mph49%30.07 "HgN/A
1:20 PM64 °FBroken clouds.8 mph52%30.07 "HgN/A
12:50 PM64 °FScattered clouds.8 mph52%30.07 "HgN/A
12:20 PM64 °FPassing clouds.6 mph49%30.07 "HgN/A
11:50 AM63 °FMild.6 mph56%30.07 "HgN/A
11:20 AM63 °FPassing clouds.7 mph59%30.07 "HgN/A
10:50 AM61 °FPassing clouds.7 mph59%30.07 "HgN/A
10:20 AM59 °FCool.6 mph63%30.07 "HgN/A
9:50 AM59 °FCool.8 mph68%30.07 "HgN/A
9:20 AM59 °FCool.9 mph68%30.07 "HgN/A
8:50 AM57 °FCool.6 mph72%30.07 "HgN/A
8:20 AM55 °FCool.5 mph77%30.04 "HgN/A
7:50 AM54 °FCool.6 mph82%30.04 "HgN/A
7:20 AM52 °FCool.6 mph88%30.04 "HgN/A
6:50 AM50 °FCool.6 mph88%30.04 "HgN/A
6:20 AM48 °FCool.5 mph87%30.04 "HgN/A
5:50 AM48 °FCool.6 mph87%30.04 "HgN/A
5:20 AM46 °FPassing clouds.6 mph87%30.04 "HgN/A
4:50 AM48 °FPassing clouds.6 mph82%30.04 "HgN/A
4:20 AM48 °FPassing clouds.5 mph82%30.04 "HgN/A
3:50 AM50 °FCool.5 mph82%30.04 "HgN/A
3:20 AM50 °FPassing clouds.5 mph82%30.04 "HgN/A
2:50 AM50 °FPassing clouds.6 mph82%30.04 "HgN/A
2:20 AM50 °FCool.8 mph82%30.04 "HgN/A
1:50 AM50 °FCool.9 mph82%30.04 "HgN/A
1:20 AM50 °FCool.9 mph82%30.04 "HgN/A
12:50 AM50 °FPassing clouds.8 mph76%30.04 "HgN/A
12:20 AM50 °FPassing clouds.8 mph76%30.01 "HgN/A
Weather by CustomWeather, © 2015

See weather overviewHow to use our weather pages